Regional Weather Roundup
Issued by NWS Sterling, VA

Home | Current Version | Previous Version | Graphics & Text | Print | Product List | Glossary On
Versions: 1 2 3 4 5 6 7 8 9 10 11 12 13 14 15 16 17 18 19 20 21 22 23 24 25 26 27
000
ASUS41 KLWX 221310
RWRLWX

REGIONAL WEATHER ROUNDUP
NATIONAL WEATHER SERVICE BALTIMORE MD/WASHINGTON DC
800 AM EST SUN JAN 22 2017

Note: "FAIR" indicates few or no clouds below 12,000 feet
with no significant weather and/or obstructions to visibility.
 TC=TEMPERATURE CELSIUS

 * =Non NWS site. Station does not report precipitation (e.g. rain,
    snow, etc.), thunder, or fog.

DCZ001-MDZ009-015-VAZ040>042-051-053>054-221400-
WASHINGTON METRO

CITY           SKY/WX    TMP DP  RH WIND       PRES   REMARKS
WASHINGTON NAT DRIZZLE   48  47  96 N8        29.71R FOG
DULLES         FOG       46  45  96 N7        29.70F VSB 1/8
QUANTICO       FOG       48  48 100 N6        29.72R VSB 1
COLLEGE PARK*  CLOUDY    45  45 100 CALM      29.71R
LEESBURG*      CLOUDY    46  46 100 N6        29.72R FOG
MANASSAS*      FOG      N/A N/A N/A CALM      29.71R VSB 1
GAITHERSBURG*  CLOUDY    45  41  87 N3        29.74R VSB 1/2

$$

MDZ006>007-011-014-221400-
BALTIMORE METRO

CITY           SKY/WX    TMP DP  RH WIND       PRES   REMARKS
BWI AIRPORT    FOG       45  45 100 N6        29.69S VSB 3/4
MD SCIENCE CTR   N/A     47  43  86 MISG      29.69F
MARTIN STATE   FOG       46  46 100 NW5       29.71R VSB 3/4
ANNAPOLIS      CLOUDY    46  44  93 NW5       29.69R FOG
FORT MEADE*    CLOUDY    45  45 100 N3        29.73R

$$

MDZ012-015-019>023-221400-
MARYLAND EASTERN SHORE

CITY           SKY/WX    TMP DP  RH WIND       PRES   REMARKS
OCEAN CITY     LGT RAIN  47  47 100 NE10      29.65R FOG
SALISBURY      CLOUDY    49  49 100 E9        29.64S FOG
BAY BRIDGE AP* FOG       41  41 100 N7        29.69S VSB 3/4
CAMBRIDGE*     CLOUDY    46  45  93 N5        29.66S
EASTON*        CLOUDY    46  45  93 NE8       29.70R FOG

$$

MDZ017>025-221400-
SOUTHERN MARYLAND

CITY           SKY/WX    TMP DP  RH WIND       PRES   REMARKS
PATUXENT RIVER FOG       45  45 100 NW10      29.67R VSB 1/2
ST INIGOES     CLOUDY    48  47  96 N5        29.66R FOG
LEONARDTOWN*   CLOUDY    45  45 100 N5        29.69R VSB 1

$$

MDZ003>005-221400-
NORTH CENTRAL MARYLAND

CITY           SKY/WX    TMP DP  RH WIND       PRES   REMARKS
FREDERICK*     CLOUDY    45  45 100 CALM      29.75R FOG
HAGERSTOWN APT FOG       44  42  93 NW6       29.72R VSB 1/4
WESTMINSTER*   FOG       41  41 100 CALM      29.70S VSB 1/4

$$

MDZ501>502-221400-
WESTERN MARYLAND

CITY           SKY/WX    TMP DP  RH WIND       PRES   REMARKS
OAKLAND*         N/A     46  43  87 E8        29.67R
CUMBERLAND*    CLOUDY    45  45 100 CALM      29.75R VSB 1/4

$$

VAZ025>031-221400-
SHENANDOAH VALLEY

CITY           SKY/WX    TMP DP  RH WIND       PRES   REMARKS
WINCHESTER*    CLOUDY    43  43 100 CALM      29.71R FOG
FRONT ROYAL*   CLOUDY    45  45 100 CALM      29.70R VSB 1
LURAY*         CLOUDY    45  45 100 NE5       29.70R FOG
NEW MARKET*    CLOUDY    44  43  96 NE3       29.70R
STAUNTON*      FOG       45  45 100 CALM      29.72R VSB 1/2
WAYNESBORO*    CLOUDY    45  44  97 CALM      29.70R VSB<1/4

$$

WVZ021-048>050-054>055-221400-
EASTERN WEST VIRGINIA PANHANDLE

CITY           SKY/WX    TMP DP  RH WIND       PRES   REMARKS
MARTINSBURG    FOG       44  43  96 NE3       29.72R VSB 1
PETERSBURG*    FOG       46  46  99 CALM      29.71R VSB 3/4

$$

VAZ036>039-050-221400-
CENTRAL FOOTHILLS

CITY           SKY/WX    TMP DP  RH WIND       PRES   REMARKS
CHARLOTTESVILL CLOUDY    49  48  97 CALM      29.71R FOG
CULPEPER*      CLOUDY    48  48 100 NW3       29.72R FOG
ORANGE*          N/A     48  48 100 CALM      29.72R FOG
GORDONSVILLE*  CLOUDY    47  47 100 MISG      29.70S FOG
WARRENTON*     CLOUDY    49  46  91 NW5       29.71R FOG

$$

VAZ055>057-221400-
NORTH AND CENTRAL PIEDMONT

CITY           SKY/WX    TMP DP  RH WIND       PRES   REMARKS
FREDERICKSBRG* FOG       48  48 100 N3        29.70R VSB 1
STAFFORD*      FOG       47  47 100 NW5       29.74R VSB 3/4

$$

NCZ024-NYZ072-PAZ021-071-VAZ022-071-221400-
OTHER REGIONAL OBSERVATIONS

CITY           SKY/WX    TMP DP  RH WIND       PRES   REMARKS
NEW YORK CITY  FOG       43  43 100 NE5       29.75F VSB 3/4
PHILADELPHIA   DRIZZLE   46  45  96 N9        29.71R FOG
PITTSBURGH     CLOUDY    47  47 100 S3        29.64R FOG
ROANOKE        CLOUDY    51  50  96 CALM      29.70S
RICHMOND       FOG       48  48 100 NW6       29.68R VSB 1/2
RALEIGH        CLOUDY    53  52  96 W3        29.69F

$$

ANZ530>537-221400-
MARINE OBSERVATIONS

STATION/POSITION TIME  TEMP    WIND        PRES
                       AIR SEA DIR/SP/G
                 (UTC) (F)     (DEG/KT/KT) (MB)
THOMAS PT LIGHT  1200   43 40  360/ 10/ 11   N/A
BALT KEY BRIDGE  1248   44     340/  6/  6 1005.6R
COVE POINT       1248   41     350/ 16/ 18 1005.1R
LEWISETTA        1248   47 44  360/  7/ 10 1003.7S
SOLOMONS ISLAND  1242   45 42  340/  7/  9   N/A
PINEY POINT      1248          360/ 11/ 11   N/A

$$





USA.gov is the U.S. government's official web portal to all federal, state and local government web resources and services.